Time,TemperatureF,DewpointF,PressureIn,WindDirection,WindDirectionDegrees,WindSpeedMPH,WindSpeedGustMPH,Humidity,HourlyPrecipIn,Conditions,Clouds,dailyrainin,SoftwareType,DateUTC
2013-01-02 00:02:00,11.0,10.0,29.54,South,172,5.0,6.0,94,1.23,,,-99.99,,2013-01-02 06:02:00,
2013-01-02 00:12:00,11.0,10.0,29.54,South,172,5.0,6.0,94,1.23,,,-99.99,,2013-01-02 06:12:00,
2013-01-02 00:22:00,11.0,10.0,29.53,South,180,5.0,6.0,94,1.23,,,-99.99,,2013-01-02 06:22:00,
2013-01-02 00:32:00,11.0,10.0,29.53,North,0,0.0,0.0,94,1.23,,,-99.99,,2013-01-02 06:32:00,
2013-01-02 00:42:00,11.0,10.0,29.53,North,0,0.0,0.0,94,1.23,,,-99.99,,2013-01-02 06:42:00,
2013-01-02 00:53:00,10.0,9.0,29.53,South,179,4.0,5.0,94,1.23,,,-99.99,,2013-01-02 06:53:00,
2013-01-02 01:02:00,10.0,9.0,29.52,SSE,158,5.0,7.0,94,1.23,,,-99.99,,2013-01-02 07:02:00,
2013-01-02 01:12:00,10.0,9.0,29.52,SSE,158,5.0,7.0,94,1.23,,,-99.99,,2013-01-02 07:12:00,
2013-01-02 01:22:00,9.0,8.0,29.53,SSE,149,1.0,3.0,94,1.23,,,-99.99,,2013-01-02 07:22:00,
2013-01-02 01:32:00,10.0,9.0,29.52,SSE,156,2.0,6.0,94,1.23,,,-99.99,,2013-01-02 07:32:00,
2013-01-02 01:42:00,10.0,9.0,29.52,SSE,156,2.0,6.0,94,1.23,,,-99.99,,2013-01-02 07:42:00,
2013-01-02 01:52:00,11.0,10.0,29.52,North,0,0.0,0.0,94,1.23,,,-99.99,,2013-01-02 07:52:00,
2013-01-02 02:02:00,10.0,9.0,29.51,North,0,0.0,0.0,94,1.23,,,-99.99,,2013-01-02 08:02:00,
2013-01-02 02:11:00,10.0,9.0,29.51,North,0,0.0,0.0,94,1.23,,,-99.99,,2013-01-02 08:11:00,
2013-01-02 02:22:00,10.0,9.0,29.52,North,0,0.0,0.0,94,1.23,,,-99.99,,2013-01-02 08:22:00,
2013-01-02 02:32:00,10.0,9.0,29.52,West,263,4.0,6.0,94,1.23,,,-99.99,,2013-01-02 08:32:00,
2013-01-02 02:42:00,10.0,9.0,29.52,West,263,4.0,6.0,94,1.23,,,-99.99,,2013-01-02 08:42:00,
2013-01-02 02:52:00,10.0,9.0,29.51,SSW,194,5.0,7.0,94,1.23,,,-99.99,,2013-01-02 08:52:00,
2013-01-02 03:02:00,9.0,8.0,29.51,North,0,0.0,0.0,94,1.23,,,-99.99,,2013-01-02 09:02:00,
2013-01-02 03:12:00,9.0,8.0,29.51,North,0,0.0,0.0,94,1.23,,,-99.99,,2013-01-02 09:12:00,
2013-01-02 03:22:00,10.0,9.0,29.52,South,191,2.0,5.0,94,1.23,,,-99.99,,2013-01-02 09:22:00,
2013-01-02 03:32:00,11.0,10.0,29.51,SW,228,6.0,7.0,95,1.23,,,-99.99,,2013-01-02 09:32:00,
2013-01-02 03:43:00,11.0,10.0,29.51,SW,228,6.0,7.0,95,1.23,,,-99.99,,2013-01-02 09:43:00,
2013-01-02 03:52:00,12.0,11.0,29.50,SW,219,1.0,3.0,94,1.23,,,-99.99,,2013-01-02 09:52:00,
2013-01-02 04:02:00,11.0,10.0,29.49,SW,231,3.0,6.0,94,1.23,,,-99.99,,2013-01-02 10:02:00,
2013-01-02 04:12:00,11.0,10.0,29.49,SW,215,3.0,6.0,94,1.23,,,-99.99,,2013-01-02 10:12:00,
2013-01-02 04:22:00,11.0,10.0,29.49,SW,215,3.0,6.0,94,1.23,,,-99.99,,2013-01-02 10:22:00,
2013-01-02 04:32:00,11.0,10.0,29.48,SW,233,3.0,5.0,94,1.23,,,-99.99,,2013-01-02 10:32:00,
2013-01-02 04:42:00,11.0,10.0,29.48,SW,233,3.0,5.0,94,1.23,,,-99.99,,2013-01-02 10:42:00,
2013-01-02 04:52:00,11.0,10.0,29.48,North,0,0.0,0.0,94,1.23,,,-99.99,,2013-01-02 10:52:00,
2013-01-02 05:02:00,11.0,10.0,29.48,SW,218,5.0,6.0,94,1.23,,,-99.99,,2013-01-02 11:02:00,
2013-01-02 05:12:00,11.0,10.0,29.48,SW,218,5.0,6.0,94,1.23,,,-99.99,,2013-01-02 11:12:00,
2013-01-02 05:22:00,11.0,10.0,29.46,North,0,0.0,0.0,94,1.23,,,-99.99,,2013-01-02 11:22:00,
2013-01-02 05:32:00,10.0,9.0,29.47,North,0,0.0,0.0,94,1.23,,,-99.99,,2013-01-02 11:32:00,
2013-01-02 05:42:00,10.0,9.0,29.47,North,0,0.0,0.0,94,1.23,,,-99.99,,2013-01-02 11:42:00,
2013-01-02 05:53:00,11.0,10.0,29.48,North,0,0.0,0.0,94,1.23,,,-99.99,,2013-01-02 11:53:00,
2013-01-02 06:02:00,10.0,9.0,29.49,SW,229,1.0,5.0,94,1.23,,,-99.99,,2013-01-02 12:02:00,
2013-01-02 06:12:00,10.0,9.0,29.49,SW,229,1.0,5.0,94,1.23,,,-99.99,,2013-01-02 12:12:00,
2013-01-02 06:22:00,9.0,8.0,29.48,North,0,0.0,0.0,94,1.23,,,-99.99,,2013-01-02 12:22:00,
2013-01-02 06:32:00,9.0,8.0,29.49,North,0,0.0,0.0,94,1.23,,,-99.99,,2013-01-02 12:32:00,
2013-01-02 06:42:00,9.0,8.0,29.49,North,0,0.0,0.0,94,1.23,,,-99.99,,2013-01-02 12:42:00,
2013-01-02 06:53:00,9.0,8.0,29.49,North,0,0.0,0.0,94,1.23,,,-99.99,,2013-01-02 12:53:00,
2013-01-02 07:02:00,9.0,8.0,29.49,North,0,0.0,0.0,94,1.23,,,-99.99,,2013-01-02 13:02:00,
2013-01-02 07:12:00,9.0,8.0,29.49,North,0,0.0,0.0,94,1.23,,,-99.99,,2013-01-02 13:12:00,
2013-01-02 07:22:00,10.0,9.0,29.49,North,0,0.0,0.0,94,1.23,,,-99.99,,2013-01-02 13:22:00,
2013-01-02 07:32:00,9.0,8.0,29.49,SSE,155,6.0,6.0,94,1.23,,,-99.99,,2013-01-02 13:32:00,
2013-01-02 07:42:00,9.0,8.0,29.49,SSE,155,6.0,6.0,94,1.23,,,-99.99,,2013-01-02 13:42:00,
2013-01-02 07:52:00,10.0,9.0,29.47,North,0,0.0,0.0,94,1.23,,,-99.99,,2013-01-02 13:52:00,
2013-01-02 08:02:00,11.0,10.0,29.50,North,0,0.0,0.0,94,1.23,,,-99.99,,2013-01-02 14:02:00,
2013-01-02 08:12:00,11.0,10.0,29.50,North,0,0.0,0.0,94,1.23,,,-99.99,,2013-01-02 14:12:00,
2013-01-02 08:22:00,12.0,11.0,29.49,North,0,0.0,0.0,94,1.23,,,-99.99,,2013-01-02 14:22:00,
2013-01-02 08:33:00,13.0,12.0,29.49,NNW,339,4.0,6.0,94,1.23,,,-99.99,,2013-01-02 14:33:00,
2013-01-02 08:42:00,13.0,12.0,29.49,NNW,339,4.0,6.0,94,1.23,,,-99.99,,2013-01-02 14:42:00,
2013-01-02 08:53:00,16.0,15.0,29.49,North,0,0.0,0.0,94,1.23,,,-99.99,,2013-01-02 14:53:00,
2013-01-02 09:02:00,20.0,19.0,29.49,NW,315,6.0,8.0,94,1.23,,,-99.99,,2013-01-02 15:02:00,
2013-01-02 09:12:00,20.0,19.0,29.49,NW,315,6.0,8.0,94,1.23,,,-99.99,,2013-01-02 15:12:00,
2013-01-02 09:22:00,22.0,21.0,29.49,NW,323,4.0,5.0,95,1.23,,,-99.99,,2013-01-02 15:22:00,
2013-01-02 09:33:00,23.0,22.0,29.50,North,0,0.0,0.0,95,1.23,,,-99.99,,2013-01-02 15:33:00,
2013-01-02 09:42:00,23.0,22.0,29.50,North,0,0.0,0.0,95,1.23,,,-99.99,,2013-01-02 15:42:00,
2013-01-02 09:53:00,23.0,22.0,29.50,North,0,0.0,0.0,94,1.23,,,-99.99,,2013-01-02 15:53:00,
2013-01-02 10:03:00,24.0,23.0,29.48,North,0,0.0,0.0,94,1.23,,,-99.99,,2013-01-02 16:03:00,
2013-01-02 10:12:00,24.0,23.0,29.48,North,0,0.0,0.0,94,1.23,,,-99.99,,2013-01-02 16:12:00,
2013-01-02 10:22:00,24.0,23.0,29.51,North,0,0.0,0.0,94,1.23,,,-99.99,,2013-01-02 16:22:00,
2013-01-02 10:33:00,26.0,25.0,29.52,WNW,298,6.0,7.0,94,1.23,,,-99.99,,2013-01-02 16:33:00,
2013-01-02 10:42:00,26.0,25.0,29.52,WNW,298,6.0,7.0,94,1.23,,,-99.99,,2013-01-02 16:42:00,
2013-01-02 10:53:00,27.0,26.0,29.52,West,280,7.0,8.0,94,1.23,,,-99.99,,2013-01-02 16:53:00,
2013-01-02 11:03:00,28.0,27.0,29.52,WNW,288,6.0,7.0,94,1.23,,,-99.99,,2013-01-02 17:03:00,
2013-01-02 11:12:00,29.0,27.0,29.51,WNW,290,8.0,10.0,94,1.23,,,-99.99,,2013-01-02 17:12:00,
2013-01-02 11:23:00,29.0,27.0,29.51,WNW,290,8.0,10.0,94,1.23,,,-99.99,,2013-01-02 17:23:00,
2013-01-02 11:33:00,29.0,27.0,29.51,WNW,285,9.0,10.0,94,1.23,,,-99.99,,2013-01-02 17:33:00,
2013-01-02 11:43:00,29.0,27.0,29.51,WNW,285,9.0,10.0,94,1.23,,,-99.99,,2013-01-02 17:43:00,
2013-01-02 11:53:00,30.0,28.0,29.50,WNW,297,10.0,12.0,94,1.23,,,-99.99,,2013-01-02 17:53:00,
2013-01-02 12:02:00,30.0,28.0,29.49,WNW,297,11.0,12.0,94,1.23,,,-99.99,,2013-01-02 18:02:00,
2013-01-02 12:12:00,30.0,28.0,29.49,WNW,297,11.0,12.0,94,1.23,,,-99.99,,2013-01-02 18:12:00,
2013-01-02 12:22:00,31.0,29.0,29.49,West,277,10.0,11.0,94,1.23,,,-99.99,,2013-01-02 18:22:00,
2013-01-02 12:33:00,32.0,30.0,29.46,WNW,297,12.0,13.0,94,1.23,,,-99.99,,2013-01-02 18:33:00,
2013-01-02 12:42:00,32.0,30.0,29.46,WNW,297,12.0,13.0,94,1.23,,,-99.99,,2013-01-02 18:42:00,
2013-01-02 12:53:00,32.0,30.0,29.48,WNW,302,13.0,15.0,92,1.23,,,-99.99,,2013-01-02 18:53:00,
2013-01-02 13:03:00,32.0,30.0,29.47,NW,308,13.0,14.0,92,1.23,,,-99.99,,2013-01-02 19:03:00,
2013-01-02 13:12:00,32.0,30.0,29.47,NW,308,13.0,14.0,92,1.23,,,-99.99,,2013-01-02 19:12:00,
2013-01-02 13:22:00,32.0,30.0,29.46,NW,305,12.0,14.0,93,1.23,,,-99.99,,2013-01-02 19:22:00,
2013-01-02 13:32:00,32.0,30.0,29.46,WNW,300,12.0,13.0,94,1.23,,,-99.99,,2013-01-02 19:32:00,
2013-01-02 13:43:00,32.0,30.0,29.46,WNW,300,12.0,13.0,94,1.23,,,-99.99,,2013-01-02 19:43:00,
2013-01-02 13:52:00,33.0,31.0,29.45,NW,312,11.0,13.0,94,1.23,,,-99.99,,2013-01-02 19:52:00,
2013-01-02 14:02:00,33.0,31.0,29.46,NW,305,10.0,12.0,94,1.23,,,-99.99,,2013-01-02 20:02:00,
2013-01-02 14:12:00,33.0,31.0,29.46,NW,305,10.0,12.0,94,1.23,,,-99.99,,2013-01-02 20:12:00,
2013-01-02 14:22:00,33.0,31.0,29.46,WNW,297,9.0,10.0,94,1.23,,,-99.99,,2013-01-02 20:22:00,
2013-01-02 14:33:00,33.0,32.0,29.46,WNW,301,8.0,9.0,95,1.23,,,-99.99,,2013-01-02 20:33:00,
2013-01-02 14:42:00,33.0,32.0,29.46,WNW,301,8.0,9.0,95,1.23,,,-99.99,,2013-01-02 20:42:00,
2013-01-02 14:53:00,33.0,32.0,29.46,WNW,301,8.0,10.0,95,1.23,,,-99.99,,2013-01-02 20:53:00,
2013-01-02 15:03:00,33.0,32.0,29.45,NW,304,9.0,10.0,95,1.23,,,-99.99,,2013-01-02 21:03:00,
2013-01-02 15:12:00,33.0,32.0,29.45,NW,304,9.0,10.0,95,1.23,,,-99.99,,2013-01-02 21:12:00,
2013-01-02 15:22:00,33.0,31.0,29.47,NW,308,11.0,14.0,94,1.23,,,-99.99,,2013-01-02 21:22:00,
2013-01-02 15:32:00,33.0,31.0,29.48,NW,323,12.0,14.0,93,1.23,,,-99.99,,2013-01-02 21:32:00,
2013-01-02 15:42:00,33.0,31.0,29.48,NW,323,12.0,14.0,93,1.23,,,-99.99,,2013-01-02 21:42:00,
2013-01-02 15:53:00,33.0,31.0,29.48,NNW,328,11.0,15.0,93,1.23,,,-99.99,,2013-01-02 21:53:00,
2013-01-02 16:02:00,33.0,31.0,29.49,NW,325,10.0,12.0,93,1.23,,,-99.99,,2013-01-02 22:02:00,
2013-01-02 16:12:00,33.0,31.0,29.49,NW,325,10.0,12.0,93,1.23,,,-99.99,,2013-01-02 22:12:00,
2013-01-02 16:22:00,33.0,31.0,29.49,NW,316,10.0,12.0,93,1.23,,,-99.99,,2013-01-02 22:22:00,
2013-01-02 16:32:00,33.0,31.0,29.51,NW,325,10.0,12.0,93,1.23,,,-99.99,,2013-01-02 22:32:00,
2013-01-02 16:42:00,33.0,31.0,29.51,NW,325,10.0,12.0,93,1.23,,,-99.99,,2013-01-02 22:42:00,
2013-01-02 16:53:00,33.0,31.0,29.52,NW,323,10.0,12.0,93,1.23,,,-99.99,,2013-01-02 22:53:00,
2013-01-02 17:02:00,33.0,31.0,29.52,NW,326,9.0,10.0,93,1.23,,,-99.99,,2013-01-02 23:02:00,
2013-01-02 17:12:00,32.0,30.0,29.51,NW,322,7.0,9.0,93,1.23,,,-99.99,,2013-01-02 23:12:00,
2013-01-02 17:22:00,32.0,30.0,29.51,NW,322,7.0,9.0,93,1.23,,,-99.99,,2013-01-02 23:22:00,
2013-01-02 17:33:00,32.0,30.0,29.52,NW,318,7.0,8.0,93,1.23,,,-99.99,,2013-01-02 23:33:00,
2013-01-02 17:42:00,32.0,30.0,29.52,NW,318,7.0,8.0,93,1.23,,,-99.99,,2013-01-02 23:42:00,
2013-01-02 17:53:00,31.0,29.0,29.53,NW,307,7.0,8.0,93,1.23,,,-99.99,,2013-01-02 23:53:00,
2013-01-02 18:02:00,31.0,29.0,29.53,NW,312,6.0,7.0,94,1.23,,,-99.99,,2013-01-03 00:02:00,
2013-01-02 18:12:00,31.0,29.0,29.53,NW,312,6.0,7.0,94,1.23,,,-99.99,,2013-01-03 00:12:00,
2013-01-02 18:22:00,31.0,29.0,29.54,NW,309,8.0,9.0,94,1.23,,,-99.99,,2013-01-03 00:22:00,
2013-01-02 18:37:00,31.0,29.0,29.54,NW,311,8.0,9.0,94,1.23,,,-99.99,,2013-01-03 00:37:00,
2013-01-02 18:52:00,31.0,29.0,29.54,NW,305,9.0,10.0,94,1.23,,,-99.99,,2013-01-03 00:52:00,
2013-01-02 19:02:00,31.0,29.0,29.55,NW,307,9.0,10.0,94,1.23,,,-99.99,,2013-01-03 01:02:00,
2013-01-02 19:12:00,31.0,29.0,29.55,NW,307,9.0,10.0,94,1.23,,,-99.99,,2013-01-03 01:12:00,
2013-01-02 19:22:00,31.0,29.0,29.56,NW,304,8.0,9.0,94,1.23,,,-99.99,,2013-01-03 01:22:00,
2013-01-02 19:32:00,31.0,29.0,29.56,NW,311,6.0,7.0,94,1.23,,,-99.99,,2013-01-03 01:32:00,
2013-01-02 19:42:00,31.0,29.0,29.56,NW,311,6.0,7.0,94,1.23,,,-99.99,,2013-01-03 01:42:00,
2013-01-02 19:52:00,31.0,29.0,29.55,NW,312,7.0,7.0,94,1.23,,,-99.99,,2013-01-03 01:52:00,
2013-01-02 20:02:00,30.0,29.0,29.57,NW,309,6.0,7.0,95,1.23,,,-99.99,,2013-01-03 02:02:00,
2013-01-02 20:12:00,30.0,29.0,29.57,NW,309,6.0,7.0,95,1.23,,,-99.99,,2013-01-03 02:12:00,
2013-01-02 20:22:00,30.0,29.0,29.57,NW,305,7.0,8.0,95,1.23,,,-99.99,,2013-01-03 02:22:00,
2013-01-02 20:33:00,30.0,29.0,29.57,NW,305,8.0,8.0,95,1.23,,,-99.99,,2013-01-03 02:33:00,
2013-01-02 20:42:00,30.0,29.0,29.57,NW,305,8.0,8.0,95,1.23,,,-99.99,,2013-01-03 02:42:00,
2013-01-02 20:52:00,30.0,29.0,29.57,NW,305,8.0,8.0,95,1.23,,,-99.99,,2013-01-03 02:52:00,
2013-01-02 21:02:00,31.0,30.0,29.57,NW,304,9.0,10.0,95,1.23,,,-99.99,,2013-01-03 03:02:00,
2013-01-02 21:12:00,31.0,30.0,29.58,NW,307,10.0,11.0,95,1.23,,,-99.99,,2013-01-03 03:12:00,
2013-01-02 21:22:00,31.0,30.0,29.58,NW,307,10.0,11.0,95,1.23,,,-99.99,,2013-01-03 03:22:00,
2013-01-02 21:46:00,30.0,29.0,29.59,NW,305,10.0,12.0,95,1.23,,,-99.99,,2013-01-03 03:46:00,
2013-01-02 21:53:00,30.0,29.0,29.59,NW,311,10.0,11.0,95,1.23,,,-99.99,,2013-01-03 03:53:00,
2013-01-02 22:02:00,29.0,28.0,29.59,NW,314,10.0,11.0,95,1.23,,,-99.99,,2013-01-03 04:02:00,
2013-01-02 22:12:00,29.0,28.0,29.59,NW,314,10.0,11.0,95,1.23,,,-99.99,,2013-01-03 04:12:00,
2013-01-02 22:22:00,29.0,28.0,29.58,NW,311,9.0,10.0,95,1.23,,,-99.99,,2013-01-03 04:22:00,
2013-01-02 22:32:00,29.0,28.0,29.61,NW,311,8.0,9.0,95,1.23,,,-99.99,,2013-01-03 04:32:00,
2013-01-02 22:42:00,29.0,28.0,29.61,NW,311,8.0,9.0,95,1.23,,,-99.99,,2013-01-03 04:42:00,
2013-01-02 22:52:00,28.0,27.0,29.61,WNW,300,8.0,9.0,95,1.23,,,-99.99,,2013-01-03 04:52:00,
2013-01-02 23:03:00,28.0,27.0,29.62,NW,314,6.0,7.0,95,1.23,,,-99.99,,2013-01-03 05:03:00,
2013-01-02 23:12:00,28.0,27.0,29.62,NW,314,7.0,8.0,96,1.23,,,-99.99,,2013-01-03 05:12:00,
2013-01-02 23:22:00,28.0,27.0,29.62,NW,314,7.0,8.0,96,1.23,,,-99.99,,2013-01-03 05:22:00,
2013-01-02 23:33:00,28.0,27.0,29.62,NW,322,7.0,8.0,96,1.23,,,-99.99,,2013-01-03 05:33:00,
2013-01-02 23:42:00,28.0,27.0,29.62,NW,322,7.0,8.0,96,1.23,,,-99.99,,2013-01-03 05:42:00,
2013-01-02 23:53:00,28.0,27.0,29.63,NW,318,5.0,5.0,96,1.23,,,-99.99,,2013-01-03 05:53:00,